Tehachapi, CA

5:10 PM PDT on July 20, 2017 (GMT -0700)
Tehachapi Municipal

Weather History for KTSP - February, 2012

Change the Weather History Date:

Sunday, February 12, 2012

  Actual Average Record
Temperature  
Mean Temperature 40 °F -  
Max Temperature 44 °F 56 °F 71 °F (2016)
Min Temperature 37 °F 32 °F 17 °F (2013)
Degree Days  
Heating Degree Days 24    
Moisture  
Dew Point 36 °F    
Average Humidity 89    
Maximum Humidity 100    
Minimum Humidity 71    
Precipitation  
Precipitation 0.00 in - - ()
Sea Level Pressure  
Sea Level Pressure 29.99 in    
Wind  
Wind Speed 15 mph (WNW)    
Max Wind Speed 20 mph    
Max Gust Speed 24 mph    
Visibility 7 miles    
Events Rain    
Averages and records for this station are not official NWS values.
T = Trace of Precipitation, MM = Missing Value Source: NWS Daily Summary

Daily Weather History Graph

Daily Weather History Graph

Search for Another Location

Airport or City:

Trip Planner

Search our weather history database for the weather conditions in past years. The results will help you decide how hot, cold, wet, or windy it might be!

Date:

Astronomy

Feb. 12, 2012 Rise Set
Actual Time 6:43 AM PST 5:33 PM PST
Civil Twilight 6:17 AM PST 5:59 PM PST
Nautical Twilight 5:47 AM PST 6:28 PM PST
Astronomical Twilight 5:17 AM PST 6:58 PM PST
Moon 11:19 PM PST (2/12) 9:20 AM PST (2/12)
Length of Visible Light 11h 41m
Length of Day
10h 49m
Waning Gibbous, 71% of the Moon is Illuminated
Feb 12
Waning Gibbous
Feb 14
Last Quarter
Feb 21
New
Feb 29
First Quarter
Mar 8
Full

Hourly Weather History & Observations

Time (PST) Temp. Windchill Dew Point Humidity Pressure Visibility Wind Dir Wind Speed Gust Speed Precip Events Conditions
12:15 AM 39.2 °F 31.2 °F 37.4 °F 93% 30.00 in 4.0 mi WNW 13.8 mph 20.7 mph N/A Rain Light Rain
12:35 AM 39.2 °F 30.5 °F 37.4 °F 93% 30.00 in 5.0 mi WNW 16.1 mph - N/A   Clear
12:55 AM 39.2 °F 31.2 °F 37.4 °F 93% 30.00 in 6.0 mi WNW 13.8 mph - N/A Rain Light Rain
1:15 AM 39.2 °F 31.2 °F 37.4 °F 93% 30.00 in 3.0 mi WNW 13.8 mph 20.7 mph N/A Rain Light Rain
1:35 AM 39.2 °F 30.5 °F 37.4 °F 93% 29.99 in 3.0 mi WNW 16.1 mph 19.6 mph N/A Rain Light Rain
1:55 AM 39.2 °F 31.6 °F 37.4 °F 93% 29.99 in 5.0 mi WNW 12.7 mph 21.9 mph N/A Rain Light Rain
2:15 AM 39.2 °F 30.8 °F 37.4 °F 93% 29.99 in 7.0 mi WNW 15.0 mph 18.4 mph N/A   Partly Cloudy
2:35 AM 39.2 °F 30.5 °F 37.4 °F 93% 29.98 in 5.0 mi NW 16.1 mph - N/A   Clear
2:55 AM 37.4 °F 27.8 °F 37.4 °F 100% 29.97 in 5.0 mi NW 17.3 mph 23.0 mph N/A   Partly Cloudy
3:15 AM 37.4 °F 28.2 °F 37.4 °F 100% 29.97 in 7.0 mi NW 16.1 mph 21.9 mph N/A   Clear
3:35 AM 37.4 °F 28.9 °F 37.4 °F 100% 29.97 in 6.0 mi NW 13.8 mph - N/A   Clear
3:55 AM 37.4 °F 29.3 °F 37.4 °F 100% 29.97 in 7.0 mi WNW 12.7 mph - N/A   Clear
4:15 AM 37.4 °F 27.8 °F 37.4 °F 100% 29.96 in 6.0 mi NW 17.3 mph - N/A   Clear
4:35 AM 37.4 °F 28.5 °F 35.6 °F 93% 29.96 in 7.0 mi WNW 15.0 mph 20.7 mph N/A   Clear
4:55 AM 37.4 °F 28.9 °F 35.6 °F 93% 29.97 in 8.0 mi WNW 13.8 mph 20.7 mph N/A   Clear
5:15 AM 37.4 °F 27.8 °F 35.6 °F 93% 29.97 in 7.0 mi WNW 17.3 mph - N/A   Clear
5:35 AM 37.4 °F 27.8 °F 35.6 °F 93% 29.97 in 5.0 mi WNW 17.3 mph 21.9 mph N/A   Clear
5:55 AM 37.4 °F 28.5 °F 35.6 °F 93% 29.97 in 7.0 mi WNW 15.0 mph 19.6 mph N/A   Clear
6:15 AM 37.4 °F 27.5 °F 35.6 °F 93% 29.98 in 8.0 mi WNW 18.4 mph 23.0 mph N/A   Clear
6:35 AM 37.4 °F 28.5 °F 35.6 °F 93% 29.97 in 8.0 mi WNW 15.0 mph 20.7 mph N/A   Clear
6:55 AM 37.4 °F 28.2 °F 35.6 °F 93% 29.97 in 7.0 mi WNW 16.1 mph - N/A   Clear
7:15 AM 37.4 °F 28.5 °F 35.6 °F 93% 29.98 in 7.0 mi WNW 15.0 mph - N/A   Clear
8:15 AM 37.4 °F 28.5 °F 35.6 °F 93% 30.00 in 7.0 mi WNW 15.0 mph 20.7 mph N/A   Clear
8:35 AM 39.2 °F 30.2 °F 35.6 °F 87% 30.01 in 8.0 mi WNW 17.3 mph 20.7 mph N/A   Scattered Clouds
8:55 AM 39.2 °F 30.8 °F 35.6 °F 87% 30.01 in 9.0 mi WNW 15.0 mph - N/A   Scattered Clouds
9:15 AM 39.2 °F 30.8 °F 33.8 °F 81% 30.01 in 9.0 mi WNW 15.0 mph 21.9 mph N/A   Clear
9:35 AM 41.0 °F 32.5 °F 35.6 °F 81% 30.02 in 9.0 mi WNW 17.3 mph - N/A   Clear
9:55 AM 41.0 °F 32.8 °F 37.4 °F 87% 30.02 in 7.0 mi NW 16.1 mph 21.9 mph N/A   Clear
10:55 AM 41.0 °F 33.1 °F 35.6 °F 81% 30.02 in 8.0 mi WNW 15.0 mph 20.7 mph N/A   Partly Cloudy
11:15 AM 44.6 °F 37.2 °F 35.6 °F 71% 30.02 in 9.0 mi NW 17.3 mph 23.0 mph N/A   Partly Cloudy
11:35 AM 41.0 °F 32.8 °F 37.4 °F 87% 30.02 in 8.0 mi NW 16.1 mph 21.9 mph N/A   Partly Cloudy
11:55 AM 41.0 °F 32.8 °F 35.6 °F 81% 30.02 in 8.0 mi NW 16.1 mph 19.6 mph N/A   Partly Cloudy
12:15 PM 41.0 °F 31.9 °F 37.4 °F 87% 30.01 in 7.0 mi WNW 19.6 mph 23.0 mph N/A   Scattered Clouds
12:35 PM 41.0 °F 32.2 °F 37.4 °F 87% 30.00 in 7.0 mi WNW 18.4 mph 23.0 mph N/A   Scattered Clouds
12:55 PM 41.0 °F 32.5 °F 37.4 °F 87% 30.00 in 7.0 mi WNW 17.3 mph - N/A   Scattered Clouds
1:15 PM 41.0 °F 32.8 °F 35.6 °F 81% 29.99 in 7.0 mi WNW 16.1 mph - N/A   Clear
1:35 PM 41.0 °F 32.8 °F 37.4 °F 87% 29.99 in 8.0 mi NW 16.1 mph 20.7 mph N/A   Clear
1:55 PM 42.8 °F 34.8 °F 37.4 °F 81% 29.98 in 8.0 mi NW 17.3 mph - N/A   Clear
2:15 PM 42.8 °F 35.1 °F 35.6 °F 76% 29.97 in 8.0 mi WNW 16.1 mph 23.0 mph N/A   Clear
2:35 PM 41.0 °F 32.8 °F 35.6 °F 81% 29.97 in 7.0 mi WNW 16.1 mph 23.0 mph N/A   Clear
2:55 PM 41.0 °F 32.2 °F 35.6 °F 81% 29.97 in 8.0 mi WNW 18.4 mph 24.2 mph N/A   Partly Cloudy
3:15 PM 41.0 °F 32.8 °F 35.6 °F 81% 29.97 in 8.0 mi WNW 16.1 mph 20.7 mph N/A   Clear
3:35 PM 41.0 °F 33.1 °F 35.6 °F 81% 29.97 in 8.0 mi NW 15.0 mph 23.0 mph N/A   Clear
3:55 PM 41.0 °F 33.1 °F 35.6 °F 81% 29.96 in 8.0 mi NW 15.0 mph 20.7 mph N/A   Clear
4:15 PM 41.0 °F 32.2 °F 35.6 °F 81% 29.96 in 8.0 mi NW 18.4 mph 21.9 mph N/A   Clear
4:55 PM 41.0 °F 33.9 °F 35.6 °F 81% 29.97 in 8.0 mi NW 12.7 mph 24.2 mph N/A   Clear
5:15 PM 41.0 °F 33.5 °F 35.6 °F 81% 29.97 in 8.0 mi WNW 13.8 mph 18.4 mph N/A   Clear
5:35 PM 41.0 °F 34.3 °F 37.4 °F 87% 29.98 in 7.0 mi WNW 11.5 mph - N/A   Clear
5:55 PM 39.2 °F 32.0 °F 35.6 °F 87% 29.98 in 8.0 mi WNW 11.5 mph 17.3 mph N/A   Clear
6:15 PM 39.2 °F 33.0 °F 37.4 °F 93% 29.98 in 7.0 mi NW 9.2 mph - N/A   Clear
6:35 PM 39.2 °F 33.6 °F 35.6 °F 87% 29.98 in 8.0 mi WNW 8.1 mph - N/A   Clear
6:55 PM 39.2 °F 33.0 °F 35.6 °F 87% 29.99 in 9.0 mi WNW 9.2 mph - N/A   Clear
7:15 PM 39.2 °F 32.0 °F 35.6 °F 87% 29.99 in 9.0 mi WNW 11.5 mph - N/A   Clear
7:35 PM 39.2 °F 32.5 °F 35.6 °F 87% 29.99 in 8.0 mi NW 10.4 mph - N/A   Clear
7:55 PM 39.2 °F 31.2 °F 35.6 °F 87% 29.99 in 8.0 mi NW 13.8 mph - N/A   Clear
8:15 PM 39.2 °F 32.5 °F 35.6 °F 87% 30.00 in 7.0 mi WNW 10.4 mph - N/A   Clear
8:35 PM 37.4 °F 30.8 °F 35.6 °F 93% 29.99 in 7.0 mi WNW 9.2 mph - N/A   Clear
8:55 PM 37.4 °F 29.3 °F 35.6 °F 93% 29.99 in 6.0 mi WNW 12.7 mph - N/A   Clear
9:15 PM 37.4 °F 29.3 °F 35.6 °F 93% 29.99 in 5.0 mi WNW 12.7 mph - N/A   Clear
9:55 PM 37.4 °F 28.5 °F 35.6 °F 93% 29.99 in 8.0 mi WNW 15.0 mph 20.7 mph N/A   Clear
10:15 PM 37.4 °F 28.2 °F 35.6 °F 93% 29.99 in 9.0 mi WNW 16.1 mph - N/A   Clear
10:35 PM 37.4 °F 28.5 °F 35.6 °F 93% 29.99 in 8.0 mi WNW 15.0 mph - N/A   Clear
10:55 PM 37.4 °F 28.5 °F 35.6 °F 93% 29.99 in 9.0 mi WNW 15.0 mph - N/A   Clear
11:15 PM 37.4 °F 29.3 °F 35.6 °F 93% 29.98 in 10.0 mi WNW 12.7 mph - N/A   Clear
11:35 PM 37.4 °F 28.5 °F 35.6 °F 93% 29.99 in 8.0 mi WNW 15.0 mph - N/A   Clear
11:55 PM 37.4 °F 28.9 °F 35.6 °F 93% 29.98 in 8.0 mi WNW 13.8 mph - N/A   Clear